OBJECT X, 62398

Orbit data source: Space-Track

You're viewing an Uncataloged Satellite

Recently launched and/or uncataloged satellites may have evolving metadata. Metadata may include but not limited to: Owner, Maufacturer, Bus, Motor, and Mission.

OBJECT X, 62398 is a satellite in LEO that was launched on Sat, 21 Dec 2024 UTC via an FALCON 9 launch vehicle from the Air Force Western Test Range (AFWTR). Unknown objects in Earth's orbit typically refer to objects detected orbiting the Earth but have not yet been identified or cataloged. These objects could be anything from previously untracked satellites, spent rocket stages, debris from satellite collisions, or even natural meteoroids temporarily captured by Earth's gravity.

Loading next visibility...
Identifier
62398, 2024-247X
Orbit
LEO
Country
Flag of TBDTBD
Related business
None
Manufacturer
Unknown
Mission
Operational Commercial Communications
Bus & Motor
Unknown
Mass
Unknown
Launch date (UTC)
2024-12-21 (1 year ago)
Launch vehicle
FALCON 9
Launch site
Air Force Western Test Range (AFWTR)
Object type
Unknown
Shape & HBR
Box, 0.0 m
Radar Cross Section
0.004 m², Small (<0.1 m²)

Expand to show TLE details & history
Last TLE update: 2 days ago

TLE from 2 days ago
0 OBJECT X
1 62398U 24247X   25347.97813105  .00104803  00000-0  15137-2 0  9997
2 62398  44.9945 190.9162 0013062 218.0591 141.9381 15.54851698 55033
Epoch: 2025-12-13T23:28Z
TLE epoch observation values (Epoch: 2025-12-13T23:28:30.522Z)
Latitude
Longitude
115.89138°
Altitude
409.559 km
Speed
7.663 km/s
True Right ascension
12h 43m 39s
True Declination
0° 00' 00"
Sunlit
Object was in daylight at epoch
Visualization orbit readout
Latitude
Unknown
Longitude
Unknown
Altitude
Unknown
Speed
Unknown
Apparent Right ascension
Unknown
Apparent Declination
Unknown
Sunlit
N/A
Visualization observer readout
Local Sidereal Time
17:10:08
Azimuth
Unknown
Elevation
Unknown
Doppler factor
Unknown
Orbital elements
Apogee altitude
413.072 km
Perigee altitude
395.354 km
Semi-major axis
6,782.35 km
Eccentricity
0.00131
Inclination
44.9945°
RAAN
190.9162°
Arg. of periapsis
218.0591°
True anomaly
142.03026°
Mean anomaly
141.9381°
Eccentric anomaly
141.98419°
Mean motion
3.88573 °/min
Orbital period
92.65 mins
BSTAR
0.0015137
Loading maneuver chart data...
Computing Atmospheric mass density...
Loading historical data...
Loading historical data...
Loading historical data...
Loading historical data...
Loading historical data...
Loading historical data...
Loading historical data...

Documentation

Showing up to 5 results
|